Regional Weather Roundup
Issued by NWS

Home | Current Version | Previous Version | Graphics & Text | Print | Product List | Glossary On
Versions: 1 2 3 4 5 6 7 8 9 10 11 12 13 14 15 16 17 18 19 20 21 22 23 24 25 26 27 28 29 30 31 32 33 34 35 36 37 38 39 40 41 42 43 44 45 46 47 48 49 50
000
ASUS43 KMKX 300221
RWRWI

WISCONSIN REGIONAL WEATHER ROUNDUP
NATIONAL WEATHER SERVICE MILWAUKEE/SULLIVAN WI
900 PM CDT FRI MAY 29 2015

NOTE: "FAIR" INDICATES FEW OR NO CLOUDS BELOW 12,000 FEET WITH NO
SIGNIFICANT WEATHER AND/OR OBSTRUCTIONS TO VISIBILITY.

WIZ001-002-006>008-014>016-023>028-300300-
NORTHWEST WISCONSIN

CITY           SKY/WX    TMP DP  RH WIND       PRES   REMARKS
SUPERIOR ARPT  CLOUDY    54  45  71 N10G18    30.04R
ASHLAND        CLOUDY    54  52  93 N10       30.00R
HAYWARD        LGT RAIN  55  53  93 N12       29.99R
SIREN          CLOUDY    53  51  92 N9        30.01R
CUMBERLAND     LGT RAIN  55  54  94 N13       29.98R
RICE LAKE      RAIN      59  55  88 N12       29.98R
CHETEK         DRIZZLE   60  58  94 N7        29.95R
LADYSMITH      CLOUDY    59  57  92 N10       29.97R
EAU CLAIRE     LGT RAIN  63  60  90 N7        29.91R
MENOMONIE      RAIN      62  61  94 N13G21    29.93R
NEW RICHMOND   DRIZZLE   57  56  98 N14       29.98R
OSCEOLA        LGT RAIN  55  55 100 N8G17     30.02R
$$

WIZ003>005-009-010-017-018-300300-
NORTH CENTRAL WISCONSIN

CITY           SKY/WX    TMP DP  RH WIND       PRES   REMARKS
MANITOWISH WTR DRIZZLE   55  55 100 N8        29.96R
ARBOR VITAE    DRIZZLE   57  55  94 N7        29.95R
WOODRUFF       DRIZZLE   57  55  94 N7        29.95R
RHINELANDER    CLOUDY    60  58  92 N7        29.94R
EAGLE RIVER    LGT RAIN  57  57  97 N12       29.93S
LAND O LAKES   LGT RAIN  56  55  95 N8        29.96R
PHILLIPS       CLOUDY    56  55  97 N8        29.94S
TOMAHAWK       DRIZZLE   61  57  88 N5        29.93S
MEDFORD        RAIN      61  60  96 NE6       29.92R
MERRILL        DRIZZLE   61  61  99 N7        29.93R
$$

WIZ029-030-035-036-043>047-300300-
CENTRAL WISCONSIN

CITY           SKY/WX    TMP DP  RH WIND       PRES   REMARKS
WAUSAU         LGT RAIN  64  62  93 N6        29.89R
MOSINEE        CLOUDY    64  64 100 W3        29.90S
MARSHFIELD     LGT RAIN  66  62  87 N7        29.90S
STEVENS POINT  LGT RAIN  64  63  97 CALM      29.90S
WAUPACA        CLOUDY    67  65  93 CALM      29.89R
WAUTOMA        CLOUDY    68  64  86 CALM      29.90R
WISC RAPIDS    LGT RAIN  65  63  93 NW3       29.91R
CAMP DOUGLAS   LGT RAIN  64  64 100 E1        29.90S
$$

WIZ011>013-019>022-031-037>040-048>050-300300-
NORTHEAST WISCONSIN

CITY           SKY/WX    TMP DP  RH WIND       PRES   REMARKS
ANTIGO         LGT RAIN  61  60  95 N8        29.92R
SHAWANO        CLOUDY    66  64  93 CALM      29.89R
OCONTO         CLOUDY    63  63 100 CALM      29.87F
STURGEON BAY   CLOUDY    66  63  88 NW9G18    29.91R
GREEN BAY      LGT RAIN  66  63  90 N6        29.87R
MANITOWOC      CLOUDY    62  61  96 S3        29.88R FOG
APPLETON       LGT RAIN  64  64 100 N6        29.89R
CLINTONVILLE   CLOUDY    64  63  94 NW5       29.88R
OSHKOSH        CLOUDY    70  60  70 NW13      29.89R
$$

WIZ032>034-041-042-053>061-300300-
SOUTHWEST WISCONSIN

CITY           SKY/WX    TMP DP  RH WIND       PRES   REMARKS
LA CROSSE      CLOUDY    68  65  90 NW7       29.90R
SPARTA         DRIZZLE   65  64  95 CALM      29.91R
VIROQUA        CLOUDY    65  65 100 N8        29.91S
BOSCOBEL       LGT RAIN  70  64  81 CALM      29.89R
PRAIRIE DU CHI CLOUDY    70  62  76 CALM      29.89R
PLATTEVILLE    CLOUDY    72  69  90 SW5       29.91R
$$

WIZ056-057-062-063-064-067-068-300300-
SOUTH CENTRAL WISCONSIN

CITY           SKY/WX    TMP DP  RH WIND       PRES   REMARKS
REEDSBURG      HVY RAIN  66  64  93 W3        29.90R
BARABOO/DELLS  CLOUDY    69  61  75 N12G17    29.90R
LONE ROCK      CLOUDY    72  62  71 NW12      29.89R
MINERAL POINT  CLOUDY    72  68  88 S7        29.91R
MADISON        CLOUDY    73  63  70 SW6       29.88S
MIDDLETON      CLOUDY    72  65  77 S8        29.90R
WATERTOWN      CLOUDY   N/A N/A N/A SW5       29.88S
MONROE         CLOUDY    70  68  94 S7        29.91S
JANESVILLE     CLOUDY    73  66  78 S6        29.90S
$$

WIZ051-052-058>065-066-070>072-300300-
SOUTHEAST WISCONSIN

CITY           SKY/WX    TMP DP  RH WIND       PRES   REMARKS
MILWAUKEE      CLOUDY    72  66  81 SW7       29.89S
WAUKESHA       MOCLDY    72  66  83 SW5       29.90S
MILWAUKEE/TIMM CLEAR     72  64  78 SW3       29.89S
RACINE         MOCLDY    67  64  90 S5        29.91S
BURLINGTON     CLOUDY    68  65  88 S8        29.90S
KENOSHA        CLOUDY    72  66  81 SW8       29.91R
FOND DU LAC    CLOUDY    69  65  86 SW7       29.87S
SHEBOYGAN      CLOUDY    65  64  97 S5        29.87S FOG
WEST BEND      CLOUDY    66  63  88 S3        29.89R
JUNEAU         CLOUDY    68  66  92 S3        29.90S
$$

LSZ147-162-300300-
LAKE SUPERIOR

STATION/POSITION TIME  TEMP    WIND        PRES    WAVE
                       AIR SEA DIR/SP/G            HT/PER
                 (UTC) (F)     (DEG/KT/KT) (MB)    (FT/S)
W MID LAKE BUOY  0150   44 37  310/ 10/ 10   N/A     1
DEVILS ISLAND    0200   51     330/ 21/ 22   N/A
PORT WING        0140   47     350/ 10/ 11   N/A
SAXON HARBOR     0140   54      CALM  /  1   N/A
$$

LMZ867-665-643>646-300300-
LAKE MICHIGAN

STATION/POSITION TIME  TEMP    WIND        PRES    WAVE
                       AIR SEA DIR/SP/G            HT/PER
                 (UTC) (F)     (DEG/KT/KT) (MB)    (FT/S)
CHAMBERS ISLAND  0100   65     210/  3/  7   N/A
N MID LAKE BUOY  0150   47 37  260/ 10/ 12   N/A     1/ 3
NORTHPORT PIER   0100   55     150/  3/  8   N/A
SISTER BAY       0103   66     180/  9/ 11   N/A
ALGOMA LAKESHORE 0138          200/  4/  5   N/A
KEWAUNEE LAKESHO 0100   53     180/ 13/ 14   N/A
SHEBOYGAN LAKESH 0200   57     180/ 11/ 11   N/A
PORT WASHINGTON  0140   57     210/  4/  8   N/A
ATWATER BUOY     0200   54     170/  8/ 10   N/A
MILWAUKEE LAKESH 0200   58     210/  4/  5   N/A
S MID LAKE BUOY  0150   46 38  210/  6/  6   N/A     0
KENOSHA   LAKESH 0200          230/  5/  9   N/A
$$

TC  - TEMPERATURE IN CELSIUS
VSB - VISIBILITY IN STATUTE MILES
WCI - WIND CHILL INDEX
HX  - HEAT INDEX




USA.gov is the U.S. government's official web portal to all federal, state and local government web resources and services.